Regional Weather Roundup
Issued by NWS Charleston, SC

Current Version | Previous Version | Graphics & Text | Print | Product List | Glossary On
Versions: 1 2 3 4 5 6 7 8 9 10 11 12 13 14 15 16 17 18 19 20 21 22 23 24 25 26 27 28 29 30 31 32 33 34 35 36 37 38 39 40 41 42 43 44 45 46 47 48 49 50
000
ASUS42 KCHS 211612
RWRCHS

REGIONAL WEATHER ROUNDUP
NATIONAL WEATHER SERVICE CHARLESTON SC
1200 PM EDT WED JUN 21 2017

NOTE: "FAIR" INDICATES FEW OR NO CLOUDS BELOW 12,000 FEET WITH NO
SIGNIFICANT WEATHER AND/OR OBSTRUCTIONS TO VISIBILITY.

NOT ALL STATIONS ARE QUALITY CONTROLLED. USE DATA WITH CAUTION...
ESPECIALLY DEWPOINT OBSERVATIONS.

SCZ027-030-031-034>040-042>050-211700-
...SOUTHEAST SOUTH CAROLINA...

CITY           SKY/WX    TMP DP  RH WIND       PRES   REMARKS
N CHARLESTON   CLOUDY    78  73  84 NE7       30.12S
WATERFRONT PRK   N/A     78  76  94 N7        30.09S
JOHNS ISLAND   DRIZZLE   77  75  94 NW6       30.11S
PINOPOLIS        N/A     75  73  94 NE6       30.06R
MONCKS CORNER  CLOUDY    75  72  88 E5        30.13S
SUMMERVILLE    CLOUDY    75  72  88 CALM      30.13S
BEAUFORT MCAS  LGT RAIN  78  78 100 N6        30.10S FOG
BEAUFORT ARPT  CLOUDY    79  77  94 NE7       30.10S
HILTON HEAD IS PTSUNNY   84  77  79 SE9       30.10S HX  94
WALTERBORO     CLOUDY    75  73  94 NE6       30.13S
ALLENDALE      CLOUDY    77  73  88 NE6       30.11S

...SOUTHERN MIDLANDS AND PEE DEE...

CITY           SKY/WX    TMP DP  RH WIND       PRES   REMARKS
GEORGETOWN     PTSUNNY   77  75  94 NE6       30.14S
KINGSTREE      FAIR      75  68  78 NE3       30.13F
ORANGEBURG     CLOUDY    76  71  85 NE7       30.13S
BARNWELL       CLOUDY    79  75  89 NE7       30.12F
AIKEN          PTSUNNY   73  70  88 E5        30.16S
MANNING        FAIR      77  72  83 E21       30.13F
COLUMBIA       CLOUDY    77  71  82 E5        30.12S
SUMTER         CLOUDY    76  70  82 CALM      30.11S
FLORENCE       PTSUNNY   77  71  82 CALM      30.13F
MYRTLE BEACH   MOSUNNY   75  70  83 N9        30.15R
N MYRTLE BEACH PTSUNNY   76  71  85 N7        30.13S

$$

GAZ063-065-086>088-099>101-113>116-118-119-134>141-150-211700-
...SOUTHEAST GEORGIA...

CITY           SKY/WX    TMP DP  RH WIND       PRES   REMARKS
SAVANNAH ARPT  CLOUDY    83  76  79 CALM      30.09S HX  91
HUNTER AAF     PTSUNNY   85  85 100 SE8       30.06S HX 107
FORT STEWART   CLOUDY    85  75  71 S8        30.06S HX  94
STATESBORO     CLOUDY    83  82  96 SE5       30.10S HX  98
SYLVANIA       CLOUDY    82  79  89 NE3       30.11F HX  93
CLAXTON        PTSUNNY  N/A N/A N/A E3        30.09F

...CSRA...CENTRAL AND FAR SOUTHEAST GEORGIA...

CITY           SKY/WX    TMP DP  RH WIND       PRES   REMARKS
THOMSON        CLOUDY    77  72  85 S6        30.17S
AUGUSTA-BUSH   CLOUDY    79  72  79 E3        30.11S
AUGUSTA-DANIEL CLOUDY    79  69  71 E6        30.13R
SWAINSBORO     CLOUDY    81  77  89 E6        30.11S
VIDALIA        CLOUDY    82  77  83 SE5       30.09S HX  91
EASTMAN        PTSUNNY   83  71  67 S8        30.11R
HAZLEHURST     FAIR      83  79  88 S6        30.08R HX  93
ALMA           CLOUDY    83  76  79 SE9       30.08R HX  91
WAYCROSS       CLOUDY    85  82  91 S5        30.07S HX 103
JESUP          PTSUNNY   88  73  62 S7        30.08S HX  96
BAXLEY         DRIZZLE   82  82 100 SE6       30.08S HX  97
BRUNSWICK      PTSUNNY   84  79  84 SE7       30.09R HX  96
SAINT SIMONS   CLOUDY    84  78  82 S8        30.08S HX  95

$$

SCZ027-028-034-036>038-045-046-048>050-GAZ119-141-211700-
...LAKE AND SUPPLEMENTAL COASTAL OBSERVATIONS...

STATION/POSITION TIME  TEMP    WIND        PRES    WAVE   SWELL
                       AIR SEA DIR/SP/G            HT/PER HT/PER/DIR
                 (UTC) (F)     (DEG/KT/KT) (MB)    (FT/S) (FT/S/D)
WINYAH BAY       1445   75     360/  3     1020.0
LAKE MURRAY      1520   77     140/  2/  4 1019.0
ACE BASIN NERRS  NOT AVBL
FORT PULASKI     1548   84 83  170/  9/ 13 1019.4R
SAPELO ISLAND    1500   84     150/  8     1018.0

$$

ANZ835-935-AMZ111-154-330-350-352-354-370-450-454-472-211700-
...C-MAN AND BUOY OBSERVATIONS...

STATION/POSITION TIME  TEMP    WIND        PRES    WAVE   SWELL
                       AIR SEA DIR/SP/G            HT/PER HT/PER/DIR
                 (UTC) (F)     (DEG/KT/KT) (MB)    (FT/S) (FT/S/D)
BUOY 41004       1550   81 81  200/  6/  8 1019.6R   4/ 7   3/150/ 7
BUOY 41008       1450   81 81  160/ 12/ 14 1018.3    3/ 7   2/110/ 7
FOLLY BEACH CMAN 1500   80     350/  2/  5 1020.1R
CAPERS NEARSHORE 1508   82 82   20/  6/ 12 1019.6R
FRIPP NEARSHORE  1508   82 83  180/  6/  8 1019.2R


STATION/POSITION TIME  TEMP    WIND        PRES    WAVE   SWELL
                       AIR SEA DIR/SP/G            HT/PER HT/PER/DIR
                 (UTC) (F)     (DEG/KT/KT) (MB)    (FT/S) (FT/S/D)
5E ST. MARYS GA  1530      80                N/A     3/ 7
FRYING PAN BUOY  1550   77 81   30/ 12/ 16 1020.5R   4/ 7   2/170/ 7
BUOY 41025       1550   76 80  300/ 16/ 17 1020.1R   4/ 5   2/ 90/13
CAPE LOOKOUT NC  1500   75     320/ 10/ 12 1020.2R
BUOY 41002       1450   81 82  190/ 10/ 12 1021.4    4/ 7   3/120/ 7
BUOY 41010       1550   83 82  150/ 14/ 17 1019.5R   7/ 7   3/130/14
ST AUGUSTINE FL  1600   78 78  130/  8/  9 1019.0R


$$




USA.gov is the U.S. government's official web portal to all federal, state and local government web resources and services.